STARLINK-11601, 63110

Orbit data source: Space-Track

STARLINK-11601, 63110 is a payload satellite owned by SpaceX/Seattle (US) in LEO that was launched on Thu, 27 Feb 2025 UTC via an FALCON 9 launch vehicle from the Air Force Eastern Test Range (AFETR). Payload-class satellites include a variety of spacecraft equipped with specific instruments for various scientific and technological missions. These include communications satellites like Starlink; space stations such as the ISS; scientific satellites like the Hubble; Earth observation satellites from companies like Planet Labs, Umbra, and HawkEye 360; GPS; miniature CubeSats for education and research; and military/defense satellites.

Loading next visibility...
Identifier
63110, 2025-039G
Orbit
LEO
Country
Flag of USUS
Related business
Manufacturer
SpaceX/Seattle
Mission
Operational Commercial Communications
Bus & Motor
STARLINK V2MD, Unknown motor
Mass
960 kg wet, ~910 kg dry
Launch date (UTC)
2025-02-27 (7 months ago)
Launch vehicle
FALCON 9
Launch site
Air Force Eastern Test Range (AFETR)
Object type
Payload
Rocket body
Debris
Shape & HBR
Box + 2 Pan, 14.5 m
Radar Cross Section
36.964 m², Large (>1 m²)

Expand to show TLE details & history
Last TLE update: 22 hours ago

TLE from 22 hours ago
0 STARLINK-11601
1 63110U 25039G   25257.36137820  .00166977  00000-0  12785-2 0  9992
2 63110  43.0010 219.6893 0001618 284.0344  76.0343 15.70845683 31880
Epoch: 2025-09-14T08:40Z
TLE epoch observation values (Epoch: 2025-09-14T08:40:23.076Z)
Latitude
-0.00007°
Longitude
96.01159°
Altitude
355.987 km
Speed
7.698 km/s
True Right ascension
14h 38m 45s
True Declination
0° 00' 00"
Sunlit
Object was in daylight at epoch
Visualization orbit readout
Latitude
Unknown
Longitude
Unknown
Altitude
Unknown
Speed
Unknown
Apparent Right ascension
Unknown
Apparent Declination
Unknown
Sunlit
N/A
Visualization observer readout
Local Sidereal Time
23:27:12
Azimuth
Unknown
Elevation
Unknown
Doppler factor
Unknown
Orbital elements
Apogee altitude
359.55 km
Perigee altitude
357.37 km
Semi-major axis
6,736.597 km
Eccentricity
0.00016
Inclination
43.001°
RAAN
219.6893°
Arg. of periapsis
284.0344°
True anomaly
76.05229°
Mean anomaly
76.0343°
Eccentric anomaly
76.0433°
Mean motion
3.92539 °/min
Orbital period
91.71 mins
BSTAR
0.0012785
Loading maneuver chart data...
Computing Atmospheric mass density...
Loading historical data...
Loading historical data...
Loading historical data...
Loading historical data...
Loading historical data...
Loading historical data...
Loading historical data...

Documentation

Showing up to 5 results
|